Location: Bruch
(44.2051°N, 0.4120°E)
Time: 05:29:27
(UTC+00:00)

Cosmos 990 Rocket - Pass Details

Date: 29 November 2020
Orbit: 747 x 768 km, 74.0° (Epoch: 24 January)

Event Time Altitude Azimuth Distance (km) Brightness Sun altitude
Rises 05:26:58 0° 209° (SSW) 3,214 7.1 -18.3°
Reaches altitude 10° 05:29:21 10° 213° (SSW) 2,295 6.3 -17.9°
Maximum altitude 05:34:30 61° 294° (WNW) 873 4.0 -17.0°
Drops below altitude 10° 05:39:42 10° 14° (NNE) 2,317 6.5 -16.1°
Sets 05:42:08 0° 18° (NNE) 3,249 7.3 -15.6°
